Regional Weather Roundup
Issued by NWS

Home | Current Version | Previous Version | Text Only | Print | Product List | Glossary Off
Versions: 1 2 3 4 5 6 7 8 9 10 11 12 13 14 15 16 17 18 19 20 21 22 23 24 25 26 27 28 29 30 31 32 33 34 35 36 37 38 39 40 41 42 43 44 45 46 47 48 49 50

000
ASUS45 KABQ 190310
RWRNM
NEW MEXICO REGIONAL WEATHER ROUNDUP
NATIONAL WEATHER SERVICE ALBUQUERQUE NM
800 PM MST SAT FEB 18 2017

NOTE: "FAIR" MEANS FEW OR NO CLOUDS BELOW 12,000 FEET AGL WITH NO
       SIGNIFICANT WEATHER OR OBSTRUCTIONS TO VISION.

      THIS PRODUCT IS RELEASED AS TWO VERSIONS.  ONE VERSION NEAR
      THE TOP OF THE HOUR CONTAINING PRELIMINARY DATA FROM ALBUQUERQUE
      AND OTHER STATIONS.  A FINAL VERSION WITH ADDITIONAL DATA IS
      ISSUED ABOUT 10 MINUTES AFTER THE HOUR.

NMZ501-503-504-510>518-190400-
NORTHWEST PLATEAU/NORTHCENTRAL MOUNTAINS

CITY           SKY/WX    TMP DP  RH WIND       PRES   REMARKS
FARMINGTON     FAIR      49  29  46 SE7       29.70S
LOS ALAMOS     FAIR      45  17  32 S8        29.83R
SANTA FE       CLOUDY    46  29  51 E5        29.81R
TAOS             N/A     45  27  49 SW13      29.81S
ANGEL FIRE     CLOUDY    42  24  47 CALM      29.88S

$$
NMZ402-403-502-505>509-190400-
WESTCENTRAL MOUNTAINS/SOUTHWEST MOUNTAINS

CITY           SKY/WX    TMP DP  RH WIND       PRES   REMARKS
GALLUP         MOCLDY    43  28  55 CALM      29.73S
GRANTS         MOCLDY    44  31  60 S9        29.78R
SILVER CITY    LGT RAIN  40  37  91 SW23G36   29.81R WCI  30

$$
NMZ407-409-411-412-190400-
SOUTHERN DESERTS

CITY           SKY/WX    TMP DP  RH WIND       PRES   REMARKS
DEMING         RAIN      45  41  86 W24G37    29.81R
LAS CRUCES     MOCLDY    55  32  41 E5        29.73R
HOLLOMAN AFB   FAIR      51  34  52 NE7       29.75S
ALAMOGORDO     FAIR      54  32  43 N9        29.73S
T OR C         FAIR      50  33  52 N3        29.72S

$$
NMZ519>523-190400-
CENTRAL VALLEYS/CENTRAL HIGHLANDS

CITY           SKY/WX    TMP DP  RH WIND       PRES   REMARKS
ALBUQUERQUE    MOCLDY    49  32  52 E7        29.78R
DOUBLE EAGLE   PTCLDY    43  30  61 SE5       29.79R
MORIARTY ARPT  FAIR      43  28  55 SE6       29.83R
CLINES CORNERS FAIR      40  24  53 W5        29.85R
BELEN          FAIR      46  31  55 SE8       29.76F
SOCORRO        FAIR      44  33  64 CALM      29.74R

$$
NMZ524>526-539-540-190400-
SOUTHCENTRAL MOUNTAINS

CITY           SKY/WX    TMP DP  RH WIND       PRES   REMARKS
RUIDOSO        FAIR      45  27  49 SE3       29.86R

$$
NMZ527>531-190400-
NORTHEAST HIGHLANDS/NORTHEAST PLAINS

CITY           SKY/WX    TMP DP  RH WIND       PRES   REMARKS
LAS VEGAS      FAIR      43  30  60 S12       29.83S
RATON          FAIR      44  21  40 W8        29.80R
CLAYTON        FAIR      50  31  48 S13       29.78R

$$
NMZ532>537-190400-
EASTCENTRAL PLAINS

CITY           SKY/WX    TMP DP  RH WIND       PRES   REMARKS
TUCUMCARI      FAIR      57  33  40 SE10      29.74R
CANNON AFB     FAIR      53  36  51 E13       29.78R
CLOVIS AIRPORT FAIR      54  36  50 SE16      29.78S

$$
NMZ028-029-538-190400-
SOUTHEAST PLAINS

CITY           SKY/WX    TMP DP  RH WIND       PRES   REMARKS
ROSWELL        FAIR      53  33  46 SW5         N/A
ARTESIA        FAIR      57  34  41 W5        29.73R
CARLSBAD       FAIR      61  36  39 CALM      29.70R
HOBBS          FAIR      57  32  38 SE10      29.76S


$$




USA.gov is the U.S. government's official web portal to all federal, state and local government web resources and services.